Weather History for Alpine, TX

Change the Weather History Date:

Monday, February 10, 2014

  Actual Average (KMRF) Record (KMRF)
Temperature  
Mean Temperature 41 °F -  
Max Temperature 55 °F 58 °F 78 °F (1999)
Min Temperature 27 °F 28 °F 6 °F (2011)
Degree Days  
Heating Degree Days 24    
Moisture  
Dew Point 28 °F    
Average Humidity 65    
Maximum Humidity 99    
Minimum Humidity 31    
Precipitation  
Precipitation 0.00 in - - ()
Sea Level Pressure  
Sea Level Pressure 30.11 in    
Wind  
Wind Speed 7 mph (ENE)    
Max Wind Speed 13 mph    
Max Gust Speed -    
Visibility 8 miles    
Events      
Averages and records for this station are not official NWS values.
T = Trace of Precipitation, MM = Missing Value Source: NWS Daily Summary

Daily Weather History Graph

Daily Weather History Graph

Search for Another Location

Airport:

Trip Planner

Search our weather history database for the weather conditions in past years. The results will help you decide how hot, cold, wet, or windy it might be!

Date:

Astronomy

Feb. 10, 2014 Rise Set
Actual Time 7:39 AM CST 6:39 PM CST
Civil Twilight 7:14 AM CST 7:03 PM CST
Nautical Twilight 6:46 AM CST 7:32 PM CST
Astronomical Twilight 6:18 AM CST 8:00 PM CST
Moon 3:16 PM CST (2/10) 4:27 AM CST (2/10)
Length of Visible Light 11h 49m
Length of Day
10h 59m
Waxing Gibbous, 85% of the Moon is Illuminated
Feb 10
Waxing Gibbous
Feb 14
Full
Feb 22
Last Quarter
Mar 1
New
Mar 8
First Quarter

Hourly Weather History & Observations

Time (CST) Temp. Windchill Dew Point Humidity Pressure Visibility Wind Dir Wind Speed Gust Speed Precip Events Conditions
12:15 AM 55.6 °F - 25.3 °F 31% 30.10 in 10.0 mi WSW 10.4 mph - N/A   Clear
12:35 AM 52.9 °F - 24.6 °F 33% 30.10 in 10.0 mi SW 10.4 mph - N/A   Clear
12:55 AM 51.3 °F - 24.8 °F 36% 30.10 in 10.0 mi SW 10.4 mph - N/A   Clear
1:15 AM 52.0 °F - 25.0 °F 35% 30.09 in 10.0 mi West 12.7 mph - N/A   Clear
1:35 AM 53.6 °F - 25.3 °F 34% 30.09 in 10.0 mi WSW 12.7 mph - N/A   Clear
1:55 AM 55.0 °F - 25.5 °F 32% 30.09 in 10.0 mi South 6.9 mph - N/A   Clear
2:15 AM 51.6 °F - 25.2 °F 36% 30.09 in 10.0 mi WSW 5.8 mph - N/A   Clear
2:35 AM 53.4 °F - 25.7 °F 34% 30.09 in 10.0 mi West 6.9 mph - N/A   Clear
2:55 AM 53.4 °F - 25.5 °F 34% 30.09 in 10.0 mi WSW 4.6 mph - N/A   Clear
3:15 AM 55.6 °F - 25.7 °F 32% 30.09 in 10.0 mi Calm Calm - N/A   Clear
3:35 AM 55.6 °F - 25.9 °F 32% 30.09 in 10.0 mi SSW 6.9 mph - N/A   Clear
3:55 AM 51.6 °F - 25.2 °F 36% 30.09 in 10.0 mi SW 10.4 mph - N/A   Clear
4:15 AM 53.2 °F - 25.9 °F 35% 30.09 in 10.0 mi Calm Calm - N/A   Clear
4:35 AM 51.8 °F - 25.7 °F 36% 30.09 in 10.0 mi Calm Calm - N/A   Clear
4:55 AM 51.1 °F - 25.7 °F 37% 30.09 in 10.0 mi SW 5.8 mph - N/A   Clear
5:15 AM 52.7 °F - 25.5 °F 35% 30.09 in 10.0 mi Calm Calm - N/A   Clear
5:35 AM 41.2 °F 34.5 °F 23.9 °F 50% 30.10 in 10.0 mi ENE 11.5 mph - N/A   Clear
5:55 AM 33.3 °F 25.7 °F 24.8 °F 71% 30.12 in 10.0 mi NE 9.2 mph - N/A   Clear
6:15 AM 30.7 °F 22.0 °F 25.5 °F 81% 30.14 in 10.0 mi NE 10.4 mph - N/A   Clear
6:35 AM 29.3 °F 20.8 °F 26.1 °F 88% 30.15 in 7.0 mi NE 9.2 mph - N/A   Clear
6:55 AM 28.0 °F 20.0 °F 26.1 °F 92% 30.17 in 5.0 mi NE 8.1 mph - N/A   Scattered Clouds
7:15 AM 28.2 °F 20.2 °F 27.3 °F 96% 30.19 in 1.2 mi NE 8.1 mph - N/A   Overcast
7:35 AM 27.9 °F 21.5 °F 27.3 °F 98% 30.19 in 0.2 mi ENE 5.8 mph - N/A   Overcast
7:55 AM 28.0 °F 20.0 °F 27.7 °F 99% 30.20 in 0.2 mi ENE 8.1 mph - N/A   Overcast
8:15 AM 28.2 °F 23.1 °F 27.7 °F 98% 30.21 in 0.2 mi ENE 4.6 mph - N/A   Overcast
8:35 AM 28.4 °F 22.2 °F 28.0 °F 99% 30.21 in 0.2 mi East 5.8 mph - N/A   Overcast
8:55 AM 28.4 °F 23.3 °F 28.2 °F 99% 30.21 in 0.2 mi ENE 4.6 mph - N/A   Overcast
9:15 AM 28.6 °F - 28.2 °F 99% 30.22 in 0.2 mi Calm Calm - N/A   Overcast
9:35 AM 28.9 °F - 28.4 °F 98% 30.23 in 0.2 mi Calm Calm - N/A   Overcast
9:55 AM 29.3 °F 25.6 °F 29.1 °F 99% 30.23 in 0.2 mi SE 3.5 mph - N/A   Overcast
10:15 AM 29.8 °F 26.3 °F 29.3 °F 98% 30.23 in 0.5 mi East 3.5 mph - N/A   Overcast
10:35 AM 30.0 °F - 29.3 °F 97% 30.22 in 1.0 mi Calm Calm - N/A   Overcast
10:55 AM 30.7 °F 27.3 °F 30.0 °F 97% 30.20 in 2.5 mi ESE 3.5 mph - N/A   Overcast
11:15 AM 32.0 °F 28.7 °F 30.2 °F 93% 30.18 in 3.0 mi SSE 3.5 mph - N/A   Overcast
11:35 AM 35.2 °F - 30.4 °F 82% 30.16 in 7.0 mi Calm Calm - N/A   Mostly Cloudy
11:55 AM 38.7 °F - 31.6 °F 76% 30.15 in 10.0 mi Calm Calm - N/A   Clear
12:15 PM 44.2 °F - 30.9 °F 60% 30.13 in 10.0 mi Calm Calm - N/A   Clear
12:35 PM 47.8 °F - 30.7 °F 52% 30.12 in 10.0 mi NE 4.6 mph - N/A   Clear
12:55 PM 49.5 °F - 30.2 °F 48% 30.11 in 10.0 mi NE 5.8 mph - N/A   Clear
1:15 PM 51.1 °F - 30.4 °F 45% 30.10 in 10.0 mi ENE 6.9 mph - N/A   Clear
1:35 PM 53.1 °F - 30.6 °F 42% 30.09 in 10.0 mi NNE 10.4 mph - N/A   Clear
1:55 PM 54.1 °F - 30.6 °F 41% 30.08 in 10.0 mi NNE 11.5 mph - N/A   Clear
2:15 PM 53.1 °F - 30.2 °F 42% 30.08 in 10.0 mi NE 10.4 mph - N/A   Clear
2:35 PM 52.2 °F - 30.4 °F 43% 30.08 in 10.0 mi NE 10.4 mph - N/A   Clear
2:55 PM 52.0 °F - 30.2 °F 43% 30.07 in 10.0 mi NE 10.4 mph - N/A   Clear
3:15 PM 51.8 °F - 30.4 °F 44% 30.06 in 10.0 mi ENE 11.5 mph - N/A   Clear
3:35 PM 50.9 °F - 30.6 °F 46% 30.05 in 10.0 mi ENE 10.4 mph - N/A   Clear
3:55 PM 50.2 °F - 30.6 °F 47% 30.04 in 10.0 mi ENE 8.1 mph - N/A   Clear
4:15 PM 50.2 °F - 30.6 °F 47% 30.04 in 10.0 mi East 8.1 mph - N/A   Clear
4:35 PM 49.8 °F - 30.6 °F 48% 30.04 in 10.0 mi ENE 8.1 mph - N/A   Clear
4:55 PM 49.3 °F - 30.6 °F 49% 30.04 in 10.0 mi East 8.1 mph - N/A   Clear
5:15 PM 48.7 °F - 30.4 °F 49% 30.04 in 10.0 mi East 5.8 mph - N/A   Clear
5:35 PM 47.8 °F - 30.2 °F 50% 30.04 in 10.0 mi East 6.9 mph - N/A   Clear
5:55 PM 46.8 °F - 30.2 °F 53% 30.04 in 10.0 mi ENE 8.1 mph - N/A   Clear
6:15 PM 44.8 °F 39.9 °F 30.0 °F 56% 30.04 in 10.0 mi ENE 9.2 mph - N/A   Clear
6:35 PM 42.1 °F 36.6 °F 29.7 °F 61% 30.04 in 10.0 mi ENE 9.2 mph - N/A   Clear
6:55 PM 39.7 °F 33.7 °F 29.3 °F 66% 30.05 in 10.0 mi ENE 9.2 mph - N/A   Clear
7:15 PM 37.6 °F 32.3 °F 28.9 °F 71% 30.07 in 10.0 mi ENE 6.9 mph - N/A   Clear
7:35 PM 36.1 °F 31.4 °F 28.8 °F 75% 30.07 in 10.0 mi ENE 5.8 mph - N/A   Clear
7:55 PM 35.2 °F 32.4 °F 28.8 °F 77% 30.08 in 10.0 mi NE 3.5 mph - N/A   Clear
8:15 PM 34.3 °F 30.2 °F 28.8 °F 80% 30.09 in 10.0 mi ENE 4.6 mph - N/A   Clear
8:35 PM 33.4 °F 27.3 °F 28.2 °F 81% 30.10 in 10.0 mi NE 6.9 mph - N/A   Clear
8:55 PM 31.8 °F 24.6 °F 27.7 °F 85% 30.11 in 10.0 mi NE 8.1 mph - N/A   Clear
9:15 PM 30.7 °F 24.9 °F 27.5 °F 88% 30.11 in 10.0 mi ENE 5.8 mph - N/A   Clear
9:35 PM 30.2 °F 25.4 °F 27.5 °F 90% 30.11 in 10.0 mi ENE 4.6 mph - N/A   Mostly Cloudy
9:55 PM 30.9 °F 26.2 °F 27.9 °F 88% 30.11 in 10.0 mi NE 4.6 mph - N/A   Overcast
10:15 PM 31.1 °F 25.4 °F 27.9 °F 88% 30.11 in 10.0 mi NNE 5.8 mph - N/A   Overcast
10:35 PM 30.6 °F 25.8 °F 27.5 °F 88% 30.11 in 10.0 mi ENE 4.6 mph - N/A   Overcast
10:55 PM 30.4 °F 25.6 °F 27.0 °F 87% 30.10 in 10.0 mi ENE 4.6 mph - N/A   Overcast
11:15 PM 30.2 °F 25.4 °F 27.0 °F 88% 30.09 in 10.0 mi East 4.6 mph - N/A   Overcast
11:35 PM 29.5 °F 22.5 °F 26.6 °F 89% 30.10 in 10.0 mi ENE 6.9 mph - N/A   Overcast
11:55 PM 29.5 °F 21.8 °F 26.4 °F 88% 30.10 in 10.0 mi ENE 8.1 mph - N/A   Overcast